Station History

Weather Underground - logo

Station Historical Data
Daily Summary for August 24, 2017 Units:  English    Metric   Both
« Previous Day
Next Day »
Daily Weekly Monthly Yearly Custom
  High: Low: Average:
Temperature: TemperatureF °F 67.9 °F 81.3 °F
Dew Point: DewpointF °F 55.7 °F 63.9 °F
Humidity: Humidity % 32 % 59 %
Wind Speed: WindSpeedMPH mph 0.0 mph 1.2 mph
Wind Gust: WindSpeedGustMPH mph - -
Wind:- - SSW
Pressure: PressureIn in 29.66 in -
Precipitation: 0.00 in    
Historical Graphs
 
 
Tabular Data for August 24, 2017
Time Temperature Dew Point Pressure Wind Wind Speed Wind Gust Humidity Rainfall Rate (Hourly)
TemperatureF °F DewpointF °F PressureIn in Calm     Humidity % HourlyPrecipIn in
00:04 76.8 °F 67.5 °F 29.77 in Calm     73 % 0.00 in
00:09 76.4 °F 66.7 °F 29.77 in Calm     72 % 0.00 in
00:19 76.0 °F 67.1 °F 29.77 in Calm     74 % 0.00 in
00:24 75.9 °F 67.8 °F 29.77 in Calm     76 % 0.00 in
00:29 75.5 °F 67.0 °F 29.77 in Calm     75 % 0.00 in
00:34 75.3 °F 66.8 °F 29.77 in Calm     75 % 0.00 in
00:40 75.2 °F 66.7 °F 29.77 in Calm     75 % 0.00 in
00:45 75.1 °F 66.6 °F 29.77 in Calm     75 % 0.00 in
00:50 74.8 °F 66.7 °F 29.77 in Calm     76 % 0.00 in
00:55 74.4 °F 66.7 °F 29.77 in Calm     77 % 0.00 in
01:00 74.1 °F 66.4 °F 29.77 in Calm     77 % 0.00 in
01:05 73.9 °F 66.2 °F 29.77 in Calm     77 % 0.00 in
01:10 73.8 °F 66.5 °F 29.77 in Calm     78 % 0.00 in
01:15 73.7 °F 66.4 °F 29.77 in Calm     78 % 0.00 in
01:20 73.6 °F 66.3 °F 29.77 in Calm     78 % 0.00 in
01:25 73.3 °F 66.4 °F 29.77 in Calm     79 % 0.00 in
01:30 73.2 °F 66.3 °F 29.77 in Calm     79 % 0.00 in
01:35 73.1 °F 66.2 °F 29.77 in Calm     79 % 0.00 in
01:40 72.9 °F 66.0 °F 29.77 in Calm     79 % 0.00 in
01:45 73.1 °F 66.2 °F 29.77 in Calm     79 % 0.00 in
01:50 73.2 °F 66.7 °F 29.77 in Calm     80 % 0.00 in
01:55 73.2 °F 66.3 °F 29.77 in Calm     79 % 0.00 in
02:00 73.1 °F 66.2 °F 29.77 in Calm     79 % 0.00 in
02:05 73.0 °F 66.5 °F 29.77 in Calm     80 % 0.00 in
02:10 72.8 °F 66.6 °F 29.77 in Calm     81 % 0.00 in
02:15 72.7 °F 66.2 °F 29.77 in Calm     80 % 0.00 in
02:20 72.7 °F 66.5 °F 29.77 in Calm     81 % 0.00 in
02:25 72.6 °F 66.4 °F 29.77 in Calm     81 % 0.00 in
02:30 72.5 °F 66.7 °F 29.77 in Calm     82 % 0.00 in
02:35 72.5 °F 66.0 °F 29.77 in Calm     80 % 0.00 in
02:40 72.5 °F 66.3 °F 29.77 in Calm     81 % 0.00 in
02:42 72.5 °F 66.3 °F 29.77 in Calm     81 % 0.00 in
02:47 72.4 °F 66.2 °F 29.77 in Calm     81 % 0.00 in
02:57 71.9 °F 65.4 °F 29.77 in Calm     80 % 0.00 in
03:02 71.7 °F 65.2 °F 29.77 in Calm     80 % 0.00 in
03:07 71.6 °F 65.1 °F 29.77 in Calm     80 % 0.00 in
03:12 71.8 °F 65.3 °F 29.77 in Calm     80 % 0.00 in
03:17 71.8 °F 65.3 °F 29.77 in Calm     80 % 0.00 in
03:22 71.7 °F 65.2 °F 29.77 in Calm     80 % 0.00 in
03:27 71.5 °F 65.0 °F 29.77 in Calm     80 % 0.00 in
03:32 71.3 °F 65.2 °F 29.77 in Calm     81 % 0.00 in
03:37 71.1 °F 65.0 °F 29.77 in Calm     81 % 0.00 in
03:42 71.0 °F 65.2 °F 29.77 in SE 1.2 mph 1.2 mph 82 % 0.00 in
03:47 70.9 °F 65.1 °F 29.77 in Calm     82 % 0.00 in
03:52 70.9 °F 65.1 °F 29.77 in SE 1.2 mph   82 % 0.00 in
03:57 70.8 °F 65.0 °F 29.77 in Calm     82 % 0.00 in
04:02 70.7 °F 64.9 °F 29.77 in Calm     82 % 0.00 in
04:07 70.6 °F 64.8 °F 29.77 in SE 1.2 mph   82 % 0.00 in
04:12 70.5 °F 64.7 °F 29.77 in Calm     82 % 0.00 in
04:17 70.3 °F 64.5 °F 29.77 in Calm     82 % 0.00 in
04:22 70.0 °F 64.6 °F 29.77 in Calm     83 % 0.00 in
04:27 69.9 °F 64.5 °F 29.77 in Calm     83 % 0.00 in
04:32 69.8 °F 64.4 °F 29.77 in Calm     83 % 0.00 in
04:37 69.7 °F 64.6 °F 29.77 in Calm     84 % 0.00 in
04:42 69.6 °F 64.5 °F 29.77 in Calm     84 % 0.00 in
04:47 69.5 °F 64.5 °F 29.77 in Calm     84 % 0.00 in
04:52 69.4 °F 64.4 °F 29.77 in Calm     84 % 0.00 in
04:57 69.2 °F 64.5 °F 29.77 in Calm     85 % 0.00 in
05:02 69.1 °F 64.1 °F 29.77 in Calm     84 % 0.00 in
05:07 69.0 °F 64.0 °F 29.77 in Calm     84 % 0.00 in
05:12 69.0 °F 63.6 °F 29.77 in Calm     83 % 0.00 in
05:17 68.9 °F 63.5 °F 29.77 in Calm     83 % 0.00 in
05:18 68.9 °F 63.5 °F 29.77 in Calm     83 % 0.00 in
05:23 68.8 °F 63.4 °F 29.77 in SE 1.2 mph   83 % 0.00 in
05:28 68.6 °F 63.2 °F 29.77 in Calm     83 % 0.00 in
05:33 68.5 °F 63.5 °F 29.78 in Calm     84 % 0.00 in
05:38 68.5 °F 63.5 °F 29.78 in Calm     84 % 0.00 in
05:43 68.4 °F 63.4 °F 29.78 in SE 1.2 mph   84 % 0.00 in
05:48 68.3 °F 63.3 °F 29.78 in Calm     84 % 0.00 in
05:53 68.3 °F 63.3 °F 29.78 in SE 1.2 mph   84 % 0.00 in
05:58 68.3 °F 63.3 °F 29.78 in Calm   0.1 mph 84 % 0.00 in
06:03 68.2 °F 63.2 °F 29.78 in Calm     84 % 0.00 in
06:08 68.1 °F 63.1 °F 29.79 in SE 1.2 mph   84 % 0.00 in
06:14 68.0 °F 63.0 °F 29.78 in Calm     84 % 0.00 in
06:19 67.9 °F 62.9 °F 29.78 in Calm     84 % 0.00 in
06:24 67.9 °F 62.9 °F 29.79 in SE 1.0 mph   84 % 0.00 in
06:29 67.9 °F 62.9 °F 29.79 in Calm     84 % 0.00 in
06:34 68.0 °F 63.0 °F 29.79 in SE 1.2 mph   84 % 0.00 in
06:39 68.0 °F 63.0 °F 29.79 in Calm     84 % 0.00 in
06:44 68.1 °F 62.7 °F 29.80 in SE 1.2 mph 1.2 mph 83 % 0.00 in
06:49 68.2 °F 62.8 °F 29.80 in ESE 1.2 mph 1.2 mph 83 % 0.00 in
06:54 68.3 °F 62.9 °F 29.80 in ESE 1.2 mph 1.2 mph 83 % 0.00 in
06:59 68.5 °F 62.8 °F 29.80 in ESE 1.2 mph 1.2 mph 82 % 0.00 in
07:04 68.6 °F 62.9 °F 29.80 in Calm     82 % 0.00 in
07:09 68.8 °F 62.7 °F 29.80 in ESE 1.2 mph 1.2 mph 81 % 0.00 in
07:14 69.0 °F 62.9 °F 29.80 in ESE 1.0 mph 1.0 mph 81 % 0.00 in
07:19 69.2 °F 62.8 °F 29.80 in ESE 2.3 mph 2.3 mph 80 % 0.00 in
07:24 69.5 °F 62.7 °F 29.80 in ESE 1.2 mph 1.2 mph 79 % 0.00 in
07:29 69.7 °F 62.9 °F 29.80 in ESE 2.3 mph 2.3 mph 79 % 0.00 in
07:30 69.8 °F 62.6 °F 29.80 in SE 2.3 mph 2.3 mph 78 % 0.00 in
07:35 70.1 °F 62.6 °F 29.80 in ENE 1.2 mph 1.2 mph 77 % 0.00 in
07:40 70.5 °F 62.9 °F 29.80 in ENE 3.5 mph 3.5 mph 77 % 0.00 in
07:45 71.1 °F 62.8 °F 29.80 in South 2.3 mph 2.3 mph 75 % 0.00 in
07:47 71.3 °F 62.6 °F 29.80 in East 2.3 mph 2.3 mph 74 % 0.00 in
07:52 71.8 °F 63.1 °F 29.81 in East 2.3 mph 2.3 mph 74 % 0.00 in
07:57 72.5 °F 63.4 °F 29.81 in South 2.3 mph 2.3 mph 73 % 0.00 in
08:02 73.0 °F 63.4 °F 29.81 in Calm     72 % 0.00 in
08:07 73.6 °F 63.2 °F 29.81 in East 2.3 mph 2.3 mph 70 % 0.00 in
08:12 74.1 °F 63.3 °F 29.81 in SE 2.3 mph 2.3 mph 69 % 0.00 in
08:17 74.6 °F 63.8 °F 29.81 in SSE 1.2 mph 1.2 mph 69 % 0.00 in
08:22 74.9 °F 62.8 °F 29.81 in SE 3.5 mph 3.5 mph 66 % 0.00 in
08:27 75.4 °F 62.8 °F 29.81 in SSE 2.3 mph 2.3 mph 65 % 0.00 in
08:32 76.0 °F 62.5 °F 29.81 in SSW 3.5 mph 3.5 mph 63 % 0.00 in
08:37 76.3 °F 62.3 °F 29.82 in East 3.5 mph 3.5 mph 62 % 0.00 in
08:42 76.6 °F 62.6 °F 29.82 in South 3.5 mph 3.5 mph 62 % 0.00 in
08:47 77.3 °F 62.8 °F 29.82 in NNW 2.0 mph 2.0 mph 61 % 0.00 in
08:53 77.9 °F 62.9 °F 29.82 in SE 1.2 mph 1.2 mph 60 % 0.00 in
08:58 78.5 °F 63.0 °F 29.82 in SE 2.3 mph 2.3 mph 59 % 0.00 in
09:03 78.9 °F 62.9 °F 29.82 in South 3.5 mph 3.5 mph 58 % 0.00 in
09:08 79.2 °F 63.1 °F 29.82 in SSW 3.5 mph 3.5 mph 58 % 0.00 in
09:18 79.6 °F 62.5 °F 29.82 in ESE 3.5 mph 3.5 mph 56 % 0.00 in
09:23 79.5 °F 61.4 °F 29.82 in ENE 4.6 mph 4.6 mph 54 % 0.00 in
09:28 79.7 °F 61.6 °F 29.82 in ESE 5.8 mph 5.8 mph 54 % 0.00 in
09:33 80.1 °F 62.0 °F 29.82 in ENE 3.5 mph 3.5 mph 54 % 0.00 in
09:38 80.6 °F 61.9 °F 29.82 in SSW 3.5 mph 3.5 mph 53 % 0.00 in
09:43 80.7 °F 61.4 °F 29.82 in SE 3.5 mph 3.5 mph 52 % 0.00 in
09:44 80.7 °F 61.4 °F 29.82 in NNE 4.6 mph 4.6 mph 52 % 0.00 in
09:49 81.5 °F 61.6 °F 29.82 in SE 2.3 mph 2.3 mph 51 % 0.00 in
09:54 82.2 °F 62.8 °F 29.82 in SE 2.3 mph 2.3 mph 52 % 0.00 in
09:59 82.5 °F 62.0 °F 29.82 in SSE 4.0 mph 4.0 mph 50 % 0.00 in
10:04 82.3 °F 62.4 °F 29.82 in East 5.0 mph 5.0 mph 51 % 0.00 in
10:09 82.4 °F 63.0 °F 29.82 in SSE 4.0 mph 4.0 mph 52 % 0.00 in
10:14 82.8 °F 62.3 °F 29.81 in SSE 2.3 mph 2.3 mph 50 % 0.00 in
10:19 83.3 °F 62.1 °F 29.82 in SSE 2.0 mph 2.4 mph 49 % 0.00 in
10:24 83.3 °F 62.1 °F 29.81 in SW 3.0 mph 3.0 mph 49 % 0.00 in
10:29 83.6 °F 62.4 °F 29.81 in South 2.3 mph 2.3 mph 49 % 0.00 in
10:34 83.8 °F 62.6 °F 29.82 in SSE 4.0 mph 4.0 mph 49 % 0.00 in
10:39 84.0 °F 62.8 °F 29.81 in SSE 3.5 mph 3.5 mph 49 % 0.00 in
10:40 84.1 °F 62.9 °F 29.81 in SSE 3.5 mph 3.5 mph 49 % 0.00 in
10:45 84.7 °F 62.2 °F 29.81 in ESE 1.2 mph 1.2 mph 47 % 0.00 in
10:50 85.1 °F 60.7 °F 29.81 in SSW 2.3 mph 2.3 mph 44 % 0.00 in
10:55 85.5 °F 61.1 °F 29.81 in SW 2.3 mph 2.3 mph 44 % 0.00 in
11:00 85.9 °F 61.5 °F 29.81 in SE 3.5 mph 3.5 mph 44 % 0.00 in
11:05 85.9 °F 62.1 °F 29.81 in ENE 3.0 mph 3.0 mph 45 % 0.00 in
11:10 86.0 °F 62.2 °F 29.81 in SSW 2.3 mph 2.3 mph 45 % 0.00 in
11:15 86.7 °F 60.9 °F 29.81 in ENE 3.5 mph 3.5 mph 42 % 0.00 in
11:20 86.7 °F 60.2 °F 29.81 in NW 3.5 mph 3.5 mph 41 % 0.00 in
11:25 86.9 °F 61.0 °F 29.81 in North 1.2 mph 1.2 mph 42 % 0.00 in
11:30 87.2 °F 59.9 °F 29.81 in SW 1.2 mph 1.2 mph 40 % 0.00 in
11:35 87.3 °F 60.7 °F 29.81 in ENE 3.5 mph 3.5 mph 41 % 0.00 in
11:41 87.9 °F 59.1 °F 29.80 in NNE 3.5 mph 3.5 mph 38 % 0.00 in
11:45 88.2 °F 59.4 °F 29.80 in South 2.3 mph 2.3 mph 38 % 0.00 in
11:50 88.6 °F 61.2 °F 29.80 in SE 5.0 mph 5.0 mph 40 % 0.00 in
11:56 88.8 °F 62.1 °F 29.80 in SSW 1.2 mph 1.2 mph 41 % 0.00 in
12:01 89.2 °F 58.0 °F 29.80 in WNW 1.2 mph 1.2 mph 35 % 0.00 in
12:06 89.4 °F 57.3 °F 29.80 in NNE 4.6 mph 4.6 mph 34 % 0.00 in
12:11 89.4 °F 58.9 °F 29.80 in SSE 1.2 mph 1.2 mph 36 % 0.00 in
12:16 89.3 °F 58.1 °F 29.80 in SE 3.5 mph 3.5 mph 35 % 0.00 in
12:21 89.5 °F 55.7 °F 29.79 in NW 2.3 mph 2.3 mph 32 % 0.00 in
12:26 89.5 °F 56.6 °F 29.79 in NW 3.5 mph 3.5 mph 33 % 0.00 in
12:31 89.7 °F 58.4 °F 29.79 in NW 2.3 mph 2.3 mph 35 % 0.00 in
12:36 90.1 °F 59.5 °F 29.79 in SSW 1.2 mph 1.2 mph 36 % 0.00 in
12:41 90.9 °F 59.5 °F 29.79 in Calm     35 % 0.00 in
12:46 91.2 °F 58.1 °F 29.78 in WNW 2.3 mph 2.3 mph 33 % 0.00 in
12:51 91.3 °F 58.2 °F 29.78 in West 2.3 mph 2.3 mph 33 % 0.00 in
12:56 91.0 °F 57.9 °F 29.78 in North 3.5 mph 3.5 mph 33 % 0.00 in
13:01 90.5 °F 60.7 °F 29.78 in SE 2.3 mph 2.3 mph 37 % 0.00 in
13:06 90.8 °F 57.7 °F 29.77 in NNW 3.5 mph 3.5 mph 33 % 0.00 in
13:11 90.8 °F 59.4 °F 29.77 in WNW 3.5 mph 3.5 mph 35 % 0.00 in
13:16 91.0 °F 58.7 °F 29.77 in NE 1.2 mph   34 % 0.00 in
13:26 91.9 °F 61.1 °F 29.76 in NNW 1.2 mph 1.2 mph 36 % 0.00 in
13:27 92.1 °F 62.1 °F 29.76 in NE 1.2 mph 1.2 mph 37 % 0.00 in
13:32 92.2 °F 60.6 °F 29.76 in South 2.3 mph 2.3 mph 35 % 0.00 in
13:37 92.4 °F 61.6 °F 29.76 in SE 1.2 mph 1.2 mph 36 % 0.00 in
13:42 92.7 °F 59.4 °F 29.76 in WNW 1.2 mph 1.2 mph 33 % 0.00 in
13:47 92.4 °F 59.1 °F 29.76 in North 3.5 mph 3.5 mph 33 % 0.00 in
13:52 92.4 °F 59.1 °F 29.76 in NW 3.5 mph 3.5 mph 33 % 0.00 in
13:57 92.2 °F 58.1 °F 29.75 in NW 1.2 mph 1.2 mph 32 % 0.00 in
14:02 92.7 °F 59.4 °F 29.75 in NW 2.3 mph 2.3 mph 33 % 0.00 in
14:07 92.9 °F 60.4 °F 29.75 in NW 1.2 mph 1.2 mph 34 % 0.00 in
14:12 92.6 °F 58.4 °F 29.75 in NNW 1.2 mph 1.2 mph 32 % 0.00 in
14:17 92.7 °F 60.2 °F 29.74 in WNW 2.3 mph 2.3 mph 34 % 0.00 in
14:22 93.3 °F 59.9 °F 29.74 in West 2.3 mph 2.3 mph 33 % 0.00 in
14:27 93.0 °F 62.1 °F 29.74 in South 3.5 mph   36 % 0.00 in
14:32 93.6 °F 63.4 °F 29.74 in SSE 2.3 mph 2.3 mph 37 % 0.00 in
14:37 93.9 °F 63.7 °F 29.74 in NW 1.2 mph 1.2 mph 37 % 0.00 in
14:42 93.5 °F 62.5 °F 29.73 in West 3.5 mph 3.5 mph 36 % 0.00 in
14:47 93.2 °F 62.3 °F 29.73 in NW 1.2 mph 1.2 mph 36 % 0.00 in
14:52 93.4 °F 63.2 °F 29.73 in North 1.2 mph 1.2 mph 37 % 0.00 in
14:57 93.4 °F 61.7 °F 29.73 in NW 2.3 mph 2.3 mph 35 % 0.00 in
15:02 93.8 °F 63.6 °F 29.72 in NNE 1.2 mph   37 % 0.00 in
15:07 94.3 °F 64.8 °F 29.72 in SSE 3.0 mph 3.0 mph 38 % 0.00 in
15:13 94.1 °F 63.9 °F 29.72 in SSE 2.3 mph 2.3 mph 37 % 0.00 in
15:18 94.4 °F 64.1 °F 29.72 in South 1.2 mph   37 % 0.00 in
15:23 94.7 °F 62.8 °F 29.71 in ESE 1.2 mph 1.2 mph 35 % 0.00 in
15:28 94.8 °F 64.5 °F 29.71 in NNW 3.0 mph 3.0 mph 37 % 0.00 in
15:33 95.0 °F 63.9 °F 29.71 in South 1.2 mph 1.2 mph 36 % 0.00 in
15:35 95.2 °F 63.2 °F 29.71 in Calm     35 % 0.00 in
15:40 94.9 °F 63.0 °F 29.71 in NW 1.2 mph   35 % 0.00 in
15:45 95.2 °F 65.6 °F 29.70 in East 1.2 mph 1.2 mph 38 % 0.00 in
15:50 95.2 °F 65.6 °F 29.70 in WSW 2.3 mph 2.3 mph 38 % 0.00 in
15:55 95.7 °F 64.5 °F 29.70 in Calm   0.5 mph 36 % 0.00 in
16:00 95.7 °F 64.5 °F 29.70 in East 1.2 mph 1.2 mph 36 % 0.00 in
16:05 95.2 °F 64.8 °F 29.69 in NW 1.2 mph 1.2 mph 37 % 0.00 in
16:10 95.1 °F 64.7 °F 29.69 in Calm     37 % 0.00 in
16:15 95.3 °F 64.9 °F 29.69 in East 2.3 mph 2.3 mph 37 % 0.00 in
16:20 95.4 °F 65.8 °F 29.69 in NNW 2.3 mph 2.3 mph 38 % 0.00 in
16:25 95.7 °F 66.0 °F 29.68 in WNW 1.0 mph 1.2 mph 38 % 0.00 in
16:30 95.4 °F 65.8 °F 29.68 in WNW 2.0 mph 2.0 mph 38 % 0.00 in
16:35 95.1 °F 65.5 °F 29.68 in WNW 2.3 mph 2.3 mph 38 % 0.00 in
16:40 94.9 °F 65.3 °F 29.68 in WNW 1.2 mph 1.2 mph 38 % 0.00 in
16:45 95.0 °F 66.2 °F 29.68 in North 3.5 mph 3.5 mph 39 % 0.00 in
16:50 95.1 °F 65.5 °F 29.68 in NNW 3.5 mph 3.5 mph 38 % 0.00 in
16:55 95.2 °F 66.3 °F 29.67 in NW 2.3 mph 2.3 mph 39 % 0.00 in
16:57 95.2 °F 66.3 °F 29.68 in NW 2.3 mph 2.3 mph 39 % 0.00 in
17:02 95.2 °F 67.1 °F 29.67 in WNW 3.5 mph 3.5 mph 40 % 0.00 in
17:07 94.9 °F 66.8 °F 29.67 in WNW 1.2 mph 1.2 mph 40 % 0.00 in
17:12 95.0 °F 66.2 °F 29.67 in NW 2.3 mph 2.3 mph 39 % 0.00 in
17:17 94.9 °F 66.1 °F 29.67 in NW 3.5 mph 3.5 mph 39 % 0.00 in
17:22 94.8 °F 65.2 °F 29.67 in NW 2.3 mph 2.3 mph 38 % 0.00 in
17:27 95.0 °F 66.2 °F 29.67 in West 1.2 mph 1.2 mph 39 % 0.00 in
17:32 95.0 °F 65.4 °F 29.67 in NW 2.3 mph 2.3 mph 38 % 0.00 in
17:37 95.0 °F 65.4 °F 29.67 in NW 1.2 mph 1.2 mph 38 % 0.00 in
17:42 94.8 °F 66.7 °F 29.67 in NW 3.5 mph 3.5 mph 40 % 0.00 in
17:47 94.7 °F 65.9 °F 29.67 in WNW 2.3 mph 2.3 mph 39 % 0.00 in
17:52 94.5 °F 65.7 °F 29.66 in NW 2.3 mph 2.3 mph 39 % 0.00 in
17:57 94.4 °F 64.1 °F 29.66 in NNW 2.3 mph 2.3 mph 37 % 0.00 in
18:02 94.4 °F 65.6 °F 29.66 in North 2.3 mph 2.3 mph 39 % 0.00 in
18:07 94.3 °F 66.3 °F 29.66 in NW 1.0 mph 1.0 mph 40 % 0.00 in
18:12 94.3 °F 66.3 °F 29.66 in NW 3.5 mph 3.5 mph 40 % 0.00 in
18:17 94.0 °F 66.7 °F 29.66 in NW 1.2 mph 1.2 mph 41 % 0.00 in
18:20 93.9 °F 65.2 °F 29.66 in WNW 1.2 mph 1.2 mph 39 % 0.00 in
18:25 93.8 °F 65.1 °F 29.66 in WNW 1.2 mph 1.2 mph 39 % 0.00 in
18:30 93.4 °F 66.2 °F 29.66 in NW 1.2 mph 1.2 mph 41 % 0.00 in
18:35 92.9 °F 65.7 °F 29.66 in WNW 1.2 mph 1.2 mph 41 % 0.00 in
18:40 92.5 °F 66.1 °F 29.66 in WNW 1.2 mph 1.2 mph 42 % 0.00 in
18:45 92.2 °F 65.8 °F 29.66 in WNW 1.2 mph 1.3 mph 42 % 0.00 in
18:50 91.9 °F 66.2 °F 29.66 in WNW 1.2 mph   43 % 0.00 in
18:55 91.6 °F 65.9 °F 29.66 in Calm     43 % 0.00 in
19:00 91.3 °F 65.7 °F 29.66 in NW 1.2 mph 1.2 mph 43 % 0.00 in
19:05 90.9 °F 65.3 °F 29.66 in Calm     43 % 0.00 in
19:10 90.6 °F 65.0 °F 29.66 in Calm     43 % 0.00 in
19:15 90.2 °F 64.7 °F 29.66 in Calm     43 % 0.00 in
19:20 90.0 °F 64.5 °F 29.66 in Calm     43 % 0.00 in
19:25 89.7 °F 64.9 °F 29.66 in Calm     44 % 0.00 in
19:30 89.3 °F 65.8 °F 29.66 in Calm     46 % 0.00 in
19:35 88.7 °F 67.1 °F 29.66 in Calm     49 % 0.00 in
19:41 88.0 °F 66.4 °F 29.66 in Calm     49 % 0.00 in
19:46 87.4 °F 67.1 °F 29.66 in Calm     51 % 0.00 in
19:51 86.8 °F 66.5 °F 29.66 in Calm     51 % 0.00 in
19:56 86.4 °F 66.7 °F 29.66 in Calm     52 % 0.00 in
20:01 86.0 °F 66.9 °F 29.67 in Calm     53 % 0.00 in
20:06 85.6 °F 66.0 °F 29.67 in Calm     52 % 0.00 in
20:11 85.2 °F 66.7 °F 29.67 in Calm     54 % 0.00 in
20:16 84.9 °F 68.5 °F 29.67 in Calm     58 % 0.00 in
20:21 84.6 °F 68.7 °F 29.67 in Calm     59 % 0.00 in
20:26 84.2 °F 69.3 °F 29.67 in Calm     61 % 0.00 in
20:31 83.9 °F 67.5 °F 29.68 in SSE 1.2 mph   58 % 0.00 in
20:36 83.7 °F 67.8 °F 29.68 in Calm     59 % 0.00 in
20:41 83.4 °F 68.1 °F 29.68 in Calm     60 % 0.00 in
20:46 83.0 °F 67.7 °F 29.69 in Calm     60 % 0.00 in
20:51 82.6 °F 67.8 °F 29.69 in Calm     61 % 0.00 in
20:56 82.3 °F 67.5 °F 29.69 in Calm     61 % 0.00 in
21:01 82.1 °F 67.8 °F 29.69 in Calm     62 % 0.00 in
21:06 81.9 °F 68.1 °F 29.69 in Calm     63 % 0.00 in
21:11 81.6 °F 67.8 °F 29.70 in Calm     63 % 0.00 in
21:16 81.3 °F 67.5 °F 29.70 in Calm     63 % 0.00 in
21:21 81.1 °F 67.8 °F 29.70 in Calm     64 % 0.00 in
21:26 80.8 °F 67.5 °F 29.70 in Calm     64 % 0.00 in
21:31 80.7 °F 66.5 °F 29.70 in Calm     62 % 0.00 in
21:36 80.8 °F 66.6 °F 29.70 in Calm     62 % 0.00 in
21:41 80.8 °F 67.0 °F 29.70 in Calm     63 % 0.00 in
21:46 80.5 °F 67.2 °F 29.70 in Calm     64 % 0.00 in
21:51 80.2 °F 67.4 °F 29.70 in Calm     65 % 0.00 in
21:56 79.8 °F 67.0 °F 29.70 in Calm     65 % 0.00 in
22:01 79.5 °F 66.7 °F 29.70 in Calm     65 % 0.00 in
22:06 79.2 °F 66.9 °F 29.70 in Calm     66 % 0.00 in
22:11 78.9 °F 66.1 °F 29.70 in Calm     65 % 0.00 in
22:16 78.7 °F 65.9 °F 29.71 in Calm     65 % 0.00 in
22:21 78.5 °F 65.3 °F 29.71 in Calm     64 % 0.00 in
22:24 78.4 °F 65.7 °F 29.71 in Calm     65 % 0.00 in
22:29 78.2 °F 65.0 °F 29.71 in Calm     64 % 0.00 in
22:34 78.1 °F 64.9 °F 29.71 in Calm     64 % 0.00 in
22:39 77.9 °F 64.7 °F 29.71 in Calm     64 % 0.00 in
22:44 77.9 °F 64.7 °F 29.71 in Calm     64 % 0.00 in
22:49 77.8 °F 64.6 °F 29.71 in Calm     64 % 0.00 in
22:54 77.6 °F 64.5 °F 29.72 in Calm     64 % 0.00 in
22:59 77.6 °F 64.9 °F 29.72 in Calm     65 % 0.00 in
23:04 77.5 °F 64.8 °F 29.72 in Calm     65 % 0.00 in
23:09 77.4 °F 65.1 °F 29.72 in Calm     66 % 0.00 in
23:14 77.2 °F 65.4 °F 29.72 in Calm     67 % 0.00 in
23:19 76.8 °F 65.0 °F 29.72 in Calm     67 % 0.00 in
23:24 76.5 °F 66.0 °F 29.72 in Calm     70 % 0.00 in
23:29 76.0 °F 66.3 °F 29.72 in Calm     72 % 0.00 in
23:34 75.7 °F 65.6 °F 29.72 in Calm     71 % 0.00 in
23:39 75.9 °F 65.4 °F 29.72 in Calm     70 % 0.00 in
23:44 76.0 °F 65.9 °F 29.72 in Calm     71 % 0.00 in
23:46 76.0 °F 65.5 °F 29.72 in Calm     70 % 0.00 in
23:51 75.8 °F 65.3 °F 29.72 in Calm     70 % 0.00 in
23:56 75.6 °F 65.5 °F 29.72 in Calm     71 % 0.00 in
Park Place, Exeter, Tulare County, California, USA
Compliments of Weather Underground - 2.75 mb